Date String (YYYY-MM-DD hh:mm:ss) UTC,Instrument flags,Ambient pressure (hPa),Sample flow (lpm),Bypass flow (lpm),Sample temperature (°C),Ambient temperature (°C),ASC tube jacket temperature (°C),LED temperature (°C),Box temperature (°C),Sample RH (%),Span deviation,Mass concentration (μg/m³),Mass concentration (μg/m³),Mass concentration (μg/m³)
DateTimeUTC,F1_M11,P_M11,Q1_M11,Q2_M11,T1_M11,T2_M11,T3_M11,T4_M11,T5_M11,U1_M11,ZSPAN_M11,X0_M11,X2_M11,X1_M11
2021-12-09 00:00:00,,0811.3,4.99,0.00,23.3,22.4,00.0,32.5,25.1,12.9,0000.0,0008.18,0000.79,0000.23
2021-12-09 00:01:00,,0811.2,5.01,0.00,23.3,22.4,00.0,32.4,25.0,12.9,0000.0,0008.15,0000.78,0000.22
2021-12-09 00:02:00,,0811.1,4.99,0.00,23.3,22.4,00.0,32.4,25.0,12.8,0000.0,0007.52,0000.77,0000.21
2021-12-09 00:03:00,,0811.2,5.00,0.00,23.3,22.4,00.0,32.4,25.1,12.8,0000.0,0007.89,0000.77,0000.21
2021-12-09 00:04:00,,0811.2,5.00,0.00,23.3,22.4,00.0,32.4,25.0,12.8,0000.0,0007.17,0000.71,0000.21
2021-12-09 00:05:00,,0811.2,4.99,0.00,23.3,22.4,00.0,32.4,25.0,12.5,0000.0,0006.71,0000.63,0000.20
2021-12-09 00:06:00,,0811.2,4.99,0.00,23.3,22.4,00.0,32.4,25.1,12.4,0000.0,0006.56,0000.61,0000.20
2021-12-09 00:07:00,,0811.3,5.01,0.00,23.3,22.4,00.0,32.4,25.1,12.5,0000.0,0007.28,0000.74,0000.20
2021-12-09 00:08:00,,0811.1,4.99,0.00,23.3,22.4,00.0,32.4,25.1,12.5,0000.0,0007.71,0000.85,0000.20
2021-12-09 00:09:00,,0811.2,5.00,0.00,23.3,22.4,00.0,32.4,25.0,12.6,0000.0,0007.92,0000.94,0000.21
2021-12-09 00:10:00,,0811.4,5.01,0.00,23.3,22.3,00.0,32.4,25.0,12.7,0000.0,0008.16,0000.94,0000.21
2021-12-09 00:11:00,,0811.5,4.98,0.00,23.3,22.4,00.0,32.3,24.9,12.6,0000.0,0007.71,0000.93,0000.22
2021-12-09 00:12:00,,0811.6,5.00,0.00,23.3,22.4,00.0,32.3,25.0,12.6,0000.0,0006.98,0000.92,0000.22
2021-12-09 00:13:00,,0811.7,5.00,0.00,23.3,22.3,00.0,32.3,25.0,12.7,0000.0,0006.99,0000.92,0000.21
2021-12-09 00:14:00,,0811.7,4.99,0.00,23.3,22.3,00.0,32.3,24.9,12.7,0000.0,0005.74,0000.88,0000.21
2021-12-09 00:15:00,,0811.8,4.99,0.00,23.3,22.4,00.0,32.3,24.9,12.8,0000.0,0005.38,0000.87,0000.21
2021-12-09 00:16:00,,0811.7,5.01,0.00,23.3,22.3,00.0,32.3,24.9,12.7,0000.0,0005.20,0000.86,0000.20
2021-12-09 00:17:00,,0811.7,4.99,0.00,23.3,22.3,00.0,32.3,24.9,12.6,0000.0,0005.08,0000.86,0000.20
2021-12-09 00:18:00,,0811.7,5.02,0.00,23.3,22.4,00.0,32.3,24.9,12.6,0000.0,0004.46,0000.76,0000.19
2021-12-09 00:19:00,,0811.7,4.99,0.00,23.3,22.4,00.0,32.3,24.9,12.7,0000.0,0003.80,0000.64,0000.18
2021-12-09 00:20:00,,0811.7,5.01,0.00,23.3,22.3,00.0,32.3,24.9,12.7,0000.0,0003.24,0000.54,0000.17
2021-12-09 00:21:00,,0811.9,5.00,0.00,23.2,22.3,00.0,32.3,24.9,12.8,0000.0,0002.55,0000.50,0000.17
2021-12-09 00:22:00,,0812.0,4.98,0.00,23.3,22.3,00.0,32.3,24.9,12.8,0000.0,0002.19,0000.50,0000.16
2021-12-09 00:23:00,,0812.0,5.01,0.00,23.3,22.3,00.0,32.3,24.9,12.8,0000.0,0002.21,0000.49,0000.15
2021-12-09 00:24:00,,0812.0,4.99,0.00,23.3,22.2,00.0,32.3,24.9,12.8,0000.0,0002.37,0000.49,0000.15
2021-12-09 00:25:00,,0811.9,5.00,0.00,23.3,22.3,00.0,32.3,24.9,12.9,0000.0,0002.48,0000.54,0000.15
2021-12-09 00:26:00,,0811.9,5.01,0.00,23.2,22.3,00.0,32.3,24.9,12.8,0000.0,0002.79,0000.57,0000.17
2021-12-09 00:27:00,,0812.0,5.01,0.00,23.2,22.3,00.0,32.3,24.9,12.9,0000.0,0003.01,0000.59,0000.17
2021-12-09 00:28:00,,0811.9,4.99,0.00,23.3,22.4,00.0,32.3,24.9,12.9,0000.0,0002.98,0000.58,0000.17
2021-12-09 00:29:00,,0811.8,5.00,0.00,23.3,22.4,00.0,32.3,24.9,13.0,0000.0,0003.13,0000.61,0000.17
2021-12-09 00:30:00,,0811.7,5.00,0.00,23.3,22.4,00.0,32.3,25.0,13.1,0000.0,0002.51,0000.61,0000.17
2021-12-09 00:31:00,,0811.8,5.00,0.00,23.3,22.4,00.0,32.3,25.0,13.1,0000.0,0002.68,0000.62,0000.18
2021-12-09 00:32:00,,0811.8,5.00,0.00,23.3,22.4,00.0,32.3,25.0,13.1,0000.0,0002.69,0000.63,0000.18
2021-12-09 00:33:00,,0811.8,5.01,0.00,23.2,22.3,00.0,32.3,24.9,13.2,0000.0,0002.53,0000.61,0000.19
2021-12-09 00:34:00,,0811.8,4.99,0.00,23.2,22.3,00.0,32.3,24.9,13.2,0000.0,0002.22,0000.56,0000.20
2021-12-09 00:35:00,,0811.7,5.02,0.00,23.2,22.3,00.0,32.3,24.9,13.1,0000.0,0002.06,0000.55,0000.20
2021-12-09 00:36:00,,0811.7,4.99,0.00,23.2,22.3,00.0,32.3,24.9,13.0,0000.0,0002.20,0000.53,0000.20
2021-12-09 00:37:00,,0811.9,5.01,0.00,23.2,22.3,00.0,32.3,24.8,13.0,0000.0,0001.97,0000.51,0000.19
2021-12-09 00:38:00,,0811.7,4.99,0.00,23.2,22.3,00.0,32.3,24.8,13.0,0000.0,0001.72,0000.49,0000.19
2021-12-09 00:39:00,,0811.7,5.01,0.00,23.2,22.3,00.0,32.3,24.9,12.8,0000.0,0002.50,0000.51,0000.20
2021-12-09 00:40:00,,0811.7,4.99,0.00,23.2,22.3,00.0,32.3,25.0,12.9,0000.0,0002.76,0000.49,0000.19
2021-12-09 00:41:00,,0811.8,5.01,0.00,23.2,22.3,00.0,32.3,24.9,13.0,0000.0,0002.99,0000.54,0000.20
2021-12-09 00:42:00,,0811.8,5.00,0.00,23.2,22.3,00.0,32.3,25.0,13.0,0000.0,0004.70,0000.58,0000.20
2021-12-09 00:43:00,,0811.8,4.99,0.00,23.2,22.3,00.0,32.3,25.0,13.0,0000.0,0004.61,0000.57,0000.19
2021-12-09 00:44:00,,0811.9,5.01,0.00,23.2,22.3,00.0,32.3,25.0,13.0,0000.0,0004.68,0000.59,0000.19
2021-12-09 00:45:00,,0812.0,4.99,0.00,23.2,22.3,00.0,32.3,25.0,13.0,0000.0,0004.80,0000.62,0000.19
2021-12-09 00:46:00,,0812.0,5.01,0.00,23.2,22.3,00.0,32.3,24.9,13.0,0000.0,0004.66,0000.61,0000.19
2021-12-09 00:47:00,,0812.1,5.00,0.00,23.2,22.3,00.0,32.2,24.9,13.0,0000.0,0005.72,0000.60,0000.19
2021-12-09 00:48:00,,0812.0,4.99,0.00,23.2,22.3,00.0,32.2,24.9,12.9,0000.0,0006.21,0000.58,0000.19
2021-12-09 00:49:00,,0812.1,5.00,0.00,23.2,22.3,00.0,32.2,25.0,12.9,0000.0,0006.42,0000.58,0000.19
2021-12-09 00:50:00,,0812.1,5.01,0.00,23.1,22.3,00.0,32.2,24.9,12.9,0000.0,0005.62,0000.58,0000.19
2021-12-09 00:51:00,,0812.1,5.01,0.00,23.2,22.3,00.0,32.2,24.9,13.0,0000.0,0005.33,0000.59,0000.19
2021-12-09 00:52:00,,0812.1,4.99,0.00,23.1,22.2,00.0,32.2,24.7,13.1,0000.0,0005.09,0000.54,0000.19
2021-12-09 00:53:00,,0812.2,5.00,0.00,23.1,22.3,00.0,32.2,24.7,13.2,0000.0,0003.38,0000.50,0000.19
2021-12-09 00:54:00,,0812.2,5.01,0.00,23.1,22.2,00.0,32.2,24.8,13.3,0000.0,0003.41,0000.52,0000.20
2021-12-09 00:55:00,,0812.1,4.99,0.00,23.1,22.2,00.0,32.2,24.8,13.3,0000.0,0003.76,0000.57,0000.20
2021-12-09 00:56:00,,0812.2,5.00,0.00,23.1,22.2,00.0,32.2,24.8,13.2,0000.0,0003.76,0000.57,0000.20
2021-12-09 00:57:00,,0812.2,5.01,0.00,23.1,22.2,00.0,32.2,24.8,13.3,0000.0,0003.82,0000.58,0000.20
2021-12-09 00:58:00,,0812.3,5.01,0.00,23.1,22.3,00.0,32.2,24.8,13.4,0000.0,0002.98,0000.61,0000.20
2021-12-09 00:59:00,,0812.1,4.99,0.00,23.1,22.2,00.0,32.2,24.7,13.4,0000.0,0002.86,0000.66,0000.20
